Time,TemperatureF,DewpointF,PressureIn,WindDirection,WindDirectionDegrees,WindSpeedMPH,WindSpeedGustMPH,Humidity,HourlyPrecipIn,Conditions,Clouds,dailyrainin,SolarRadiationWatts/m^2,SoftwareType,DateUTC
2013-07-12 00:01:00,73.9,71.0,29.91,North,350,5.0,7.0,89,0.00,,,0.00,0,weatherlink.com 1.10,2013-07-12 04:01:00,
2013-07-12 00:16:00,73.6,71.0,29.91,North,350,0.0,7.0,90,0.00,,,0.00,0,weatherlink.com 1.10,2013-07-12 04:16:00,
2013-07-12 00:31:00,73.3,70.0,29.91,North,350,5.0,7.0,90,0.00,,,0.00,0,weatherlink.com 1.10,2013-07-12 04:31:00,
2013-07-12 00:46:00,73.0,70.0,29.91,North,350,0.0,7.0,91,0.00,,,0.00,0,weatherlink.com 1.10,2013-07-12 04:46:00,
2013-07-12 01:01:00,72.7,70.0,29.92,North,351,6.0,10.0,91,0.00,,,0.00,0,weatherlink.com 1.10,2013-07-12 05:01:00,
2013-07-12 01:16:00,72.2,70.0,29.92,NNE,24,2.0,12.0,91,0.00,,,0.00,0,weatherlink.com 1.10,2013-07-12 05:16:00,
2013-07-12 01:31:00,71.8,69.0,29.92,NNE,17,6.0,13.0,92,0.00,,,0.00,0,weatherlink.com 1.10,2013-07-12 05:31:00,
2013-07-12 01:46:00,71.5,69.0,29.93,NNE,17,0.0,11.0,92,0.00,,,0.00,0,weatherlink.com 1.10,2013-07-12 05:46:00,
2013-07-12 02:01:00,71.2,69.0,29.93,NNE,13,4.0,8.0,92,0.00,,,0.00,0,weatherlink.com 1.10,2013-07-12 06:01:00,
2013-07-12 02:16:00,71.1,69.0,29.94,NNE,17,5.0,9.0,92,0.00,,,0.00,0,weatherlink.com 1.10,2013-07-12 06:16:00,
2013-07-12 02:31:00,71.0,68.0,29.94,NNE,20,3.0,11.0,91,0.00,,,0.00,0,weatherlink.com 1.10,2013-07-12 06:31:00,
2013-07-12 02:46:00,71.0,67.0,29.94,NNE,29,5.0,13.0,88,0.00,,,0.00,0,weatherlink.com 1.10,2013-07-12 06:46:00,
2013-07-12 03:01:00,71.2,67.0,29.95,NNE,26,10.0,18.0,85,0.00,,,0.00,0,weatherlink.com 1.10,2013-07-12 07:01:00,
2013-07-12 03:17:00,71.3,66.0,29.95,NNE,17,6.0,17.0,84,0.00,,,0.00,0,weatherlink.com 1.10,2013-07-12 07:17:00,
2013-07-12 03:32:00,71.3,67.0,29.96,NE,39,10.0,21.0,85,0.00,,,0.00,0,weatherlink.com 1.10,2013-07-12 07:32:00,
2013-07-12 03:47:00,70.9,67.0,29.97,NE,36,6.0,19.0,87,0.00,,,0.00,0,weatherlink.com 1.10,2013-07-12 07:47:00,
2013-07-12 04:02:00,70.5,67.0,29.97,NE,39,9.0,20.0,88,0.00,,,0.00,0,weatherlink.com 1.10,2013-07-12 08:02:00,
2013-07-12 04:17:00,70.1,67.0,29.98,NE,43,14.0,18.0,89,0.00,,,0.00,0,weatherlink.com 1.10,2013-07-12 08:17:00,
2013-07-12 04:32:00,69.9,66.0,29.98,NE,44,8.0,14.0,88,0.00,,,0.00,0,weatherlink.com 1.10,2013-07-12 08:32:00,
2013-07-12 04:47:00,69.7,66.0,29.99,NNE,33,6.0,16.0,87,0.00,,,0.00,0,weatherlink.com 1.10,2013-07-12 08:47:00,
2013-07-12 05:02:00,69.7,65.0,30.00,NNE,15,11.0,14.0,84,0.00,,,0.00,0,weatherlink.com 1.10,2013-07-12 09:02:00,
2013-07-12 05:17:00,69.8,64.0,30.00,NE,40,8.0,17.0,82,0.00,,,0.00,0,weatherlink.com 1.10,2013-07-12 09:17:00,
2013-07-12 05:32:00,69.8,63.0,30.01,NE,42,10.0,17.0,80,0.00,,,0.00,11,weatherlink.com 1.10,2013-07-12 09:32:00,
2013-07-12 05:47:00,69.9,62.0,30.01,ENE,57,15.0,19.0,77,0.00,,,0.00,23,weatherlink.com 1.10,2013-07-12 09:47:00,
2013-07-12 06:02:00,70.2,63.0,30.02,NNE,32,10.0,15.0,77,0.00,,,0.00,54,weatherlink.com 1.10,2013-07-12 10:02:00,
2013-07-12 06:17:00,70.2,62.0,30.02,North,10,16.0,17.0,76,0.00,,,0.00,83,weatherlink.com 1.10,2013-07-12 10:17:00,
2013-07-12 06:32:00,70.1,62.0,30.02,NE,47,10.0,20.0,76,0.00,,,0.00,53,weatherlink.com 1.10,2013-07-12 10:32:00,
2013-07-12 06:47:00,69.9,62.0,30.02,NE,36,11.0,19.0,77,0.00,,,0.00,72,weatherlink.com 1.10,2013-07-12 10:47:00,
2013-07-12 07:02:00,70.4,63.0,30.02,NNE,18,7.0,18.0,76,0.00,,,0.00,179,weatherlink.com 1.10,2013-07-12 11:02:00,
2013-07-12 07:17:00,70.9,63.0,30.03,NE,44,7.0,22.0,75,0.00,,,0.00,90,weatherlink.com 1.10,2013-07-12 11:17:00,
2013-07-12 07:32:00,70.4,63.0,30.04,NNE,30,10.0,17.0,76,0.00,,,0.00,107,weatherlink.com 1.10,2013-07-12 11:32:00,
2013-07-12 07:47:00,70.2,62.0,30.05,ENE,59,11.0,19.0,75,0.00,,,0.00,127,weatherlink.com 1.10,2013-07-12 11:47:00,
2013-07-12 08:02:00,70.3,62.0,30.05,NE,43,14.0,20.0,75,0.00,,,0.00,130,weatherlink.com 1.10,2013-07-12 12:02:00,
2013-07-12 08:17:00,70.7,62.0,30.06,NE,40,9.0,20.0,74,0.00,,,0.00,246,weatherlink.com 1.10,2013-07-12 12:17:00,
2013-07-12 08:32:00,71.2,63.0,30.06,NE,45,7.0,19.0,74,0.00,,,0.00,281,weatherlink.com 1.10,2013-07-12 12:32:00,
2013-07-12 08:48:00,70.9,63.0,30.06,NE,40,12.0,20.0,75,0.00,,,0.00,220,weatherlink.com 1.10,2013-07-12 12:48:00,
2013-07-12 09:03:00,70.6,62.0,30.08,NNE,19,13.0,18.0,75,0.00,,,0.00,278,weatherlink.com 1.10,2013-07-12 13:03:00,
2013-07-12 09:18:00,71.7,63.0,30.08,NNE,19,8.0,20.0,74,0.00,,,0.00,482,weatherlink.com 1.10,2013-07-12 13:18:00,
2013-07-12 09:33:00,71.7,63.0,30.08,ENE,59,17.0,19.0,75,0.00,,,0.00,278,weatherlink.com 1.10,2013-07-12 13:33:00,
2013-07-12 09:48:00,71.0,63.0,30.08,ENE,61,10.0,23.0,75,0.00,,,0.00,364,weatherlink.com 1.10,2013-07-12 13:48:00,
2013-07-12 10:03:00,71.0,63.0,30.09,ENE,59,15.0,23.0,75,0.00,,,0.00,429,weatherlink.com 1.10,2013-07-12 14:03:00,
2013-07-12 10:18:00,71.0,62.0,30.10,NE,44,16.0,22.0,73,0.00,,,0.00,457,weatherlink.com 1.10,2013-07-12 14:18:00,
2013-07-12 10:33:00,71.1,63.0,30.11,NE,54,12.0,24.0,75,0.00,,,0.00,670,weatherlink.com 1.10,2013-07-12 14:33:00,
2013-07-12 10:48:00,70.8,62.0,30.12,NNE,30,7.0,20.0,74,0.00,,,0.00,200,weatherlink.com 1.10,2013-07-12 14:48:00,
2013-07-12 11:03:00,70.8,63.0,30.12,NE,49,11.0,18.0,75,0.00,,,0.00,457,weatherlink.com 1.10,2013-07-12 15:03:00,
2013-07-12 11:18:00,71.3,62.0,30.12,NE,44,17.0,21.0,73,0.00,,,0.00,325,weatherlink.com 1.10,2013-07-12 15:18:00,
2013-07-12 11:33:00,70.8,62.0,30.12,ENE,57,17.0,21.0,73,0.00,,,0.00,239,weatherlink.com 1.10,2013-07-12 15:33:00,
2013-07-12 11:48:00,71.0,62.0,30.12,NE,36,18.0,20.0,74,0.00,,,0.00,504,weatherlink.com 1.10,2013-07-12 15:48:00,
2013-07-12 12:03:00,71.3,61.0,30.12,NE,53,9.0,18.0,71,0.00,,,0.00,221,weatherlink.com 1.10,2013-07-12 16:03:00,
2013-07-12 12:18:00,70.3,61.0,30.13,ENE,57,15.0,21.0,72,0.00,,,0.00,165,weatherlink.com 1.10,2013-07-12 16:18:00,
2013-07-12 12:33:00,70.0,61.0,30.12,East,100,5.0,20.0,73,0.00,,,0.00,234,weatherlink.com 1.10,2013-07-12 16:33:00,
2013-07-12 12:48:00,69.8,61.0,30.12,NE,51,7.0,22.0,73,0.00,,,0.00,171,weatherlink.com 1.10,2013-07-12 16:48:00,
2013-07-12 13:03:00,69.5,61.0,30.12,ENE,57,4.0,20.0,74,0.00,,,0.00,132,weatherlink.com 1.10,2013-07-12 17:03:00,
2013-07-12 13:18:00,69.3,61.0,30.13,NE,38,10.0,21.0,75,0.00,,,0.00,137,weatherlink.com 1.10,2013-07-12 17:18:00,
2013-07-12 13:33:00,69.3,61.0,30.12,NE,49,8.0,20.0,75,0.00,,,0.00,165,weatherlink.com 1.10,2013-07-12 17:33:00,
2013-07-12 13:48:00,69.7,61.0,30.13,NE,54,4.0,19.0,74,0.00,,,0.00,272,weatherlink.com 1.10,2013-07-12 17:48:00,
2013-07-12 14:18:00,70.4,62.0,30.12,NE,45,13.0,16.0,75,0.00,,,0.00,285,weatherlink.com 1.10,2013-07-12 18:18:00,
2013-07-12 15:03:00,72.0,64.0,30.13,NE,47,7.0,15.0,75,0.00,,,0.00,183,weatherlink.com 1.10,2013-07-12 19:03:00,
2013-07-12 15:18:00,72.1,64.0,30.13,ENE,74,7.0,15.0,75,0.00,,,0.00,137,weatherlink.com 1.10,2013-07-12 19:18:00,
2013-07-12 15:33:00,72.3,64.0,30.13,ENE,74,4.0,14.0,76,0.00,,,0.00,128,weatherlink.com 1.10,2013-07-12 19:33:00,
2013-07-12 15:48:00,72.3,64.0,30.13,ENE,69,3.0,14.0,75,0.00,,,0.00,102,weatherlink.com 1.10,2013-07-12 19:48:00,
2013-07-12 16:03:00,71.9,64.0,30.13,ENE,76,10.0,15.0,77,0.00,,,0.00,120,weatherlink.com 1.10,2013-07-12 20:03:00,
2013-07-12 16:18:00,72.0,64.0,30.13,East,88,8.0,13.0,77,0.00,,,0.00,206,weatherlink.com 1.10,2013-07-12 20:18:00,
2013-07-12 16:33:00,71.7,64.0,30.13,ENE,78,13.0,15.0,77,0.00,,,0.00,162,weatherlink.com 1.10,2013-07-12 20:33:00,
2013-07-12 16:48:00,71.6,64.0,30.13,ENE,76,10.0,15.0,76,0.00,,,0.00,123,weatherlink.com 1.10,2013-07-12 20:48:00,
2013-07-12 17:03:00,70.9,63.0,30.13,ENE,77,12.0,19.0,75,0.00,,,0.00,130,weatherlink.com 1.10,2013-07-12 21:03:00,
2013-07-12 17:33:00,69.8,63.0,30.14,ENE,69,11.0,17.0,78,0.00,,,0.00,127,weatherlink.com 1.10,2013-07-12 21:33:00,
2013-07-12 18:18:00,69.4,63.0,30.14,East,82,8.0,17.0,80,0.00,,,0.00,95,weatherlink.com 1.10,2013-07-12 22:18:00,
2013-07-12 18:33:00,69.5,63.0,30.14,ENE,74,8.0,13.0,80,0.00,,,0.00,69,weatherlink.com 1.10,2013-07-12 22:33:00,
2013-07-12 18:48:00,69.2,63.0,30.14,ENE,64,7.0,14.0,81,0.00,,,0.00,49,weatherlink.com 1.10,2013-07-12 22:48:00,
2013-07-12 19:03:00,68.9,63.0,30.14,ENE,59,1.0,12.0,82,0.00,,,0.00,42,weatherlink.com 1.10,2013-07-12 23:03:00,
2013-07-12 19:18:00,68.7,63.0,30.15,East,80,9.0,13.0,82,0.00,,,0.00,26,weatherlink.com 1.10,2013-07-12 23:18:00,
2013-07-12 19:33:00,68.6,63.0,30.15,East,82,6.0,12.0,83,0.00,,,0.00,23,weatherlink.com 1.10,2013-07-12 23:33:00,
2013-07-12 19:49:00,68.3,63.0,30.15,East,91,8.0,11.0,83,0.00,,,0.00,19,weatherlink.com 1.10,2013-07-12 23:49:00,
2013-07-12 20:04:00,68.1,63.0,30.15,East,89,7.0,10.0,84,0.00,,,0.00,7,weatherlink.com 1.10,2013-07-13 00:04:00,
2013-07-12 20:34:00,67.9,63.0,30.16,East,88,8.0,10.0,84,0.00,,,0.00,0,weatherlink.com 1.10,2013-07-13 00:34:00,
2013-07-12 21:04:00,67.9,63.0,30.16,East,94,3.0,11.0,85,0.00,,,0.00,0,weatherlink.com 1.10,2013-07-13 01:04:00,
2013-07-12 21:34:00,67.9,63.0,30.17,East,92,7.0,10.0,84,0.00,,,0.00,0,weatherlink.com 1.10,2013-07-13 01:34:00,
2013-07-12 21:49:00,67.9,63.0,30.17,East,86,9.0,10.0,85,0.00,,,0.00,0,weatherlink.com 1.10,2013-07-13 01:49:00,
2013-07-12 22:04:00,67.8,63.0,30.18,East,101,3.0,10.0,85,0.00,,,0.00,0,weatherlink.com 1.10,2013-07-13 02:04:00,
2013-07-12 22:19:00,67.6,63.0,30.18,ESE,103,5.0,10.0,85,0.00,,,0.00,0,weatherlink.com 1.10,2013-07-13 02:19:00,
2013-07-12 23:04:00,67.1,63.0,30.19,East,98,7.0,9.0,87,0.00,,,0.00,0,weatherlink.com 1.10,2013-07-13 03:04:00,
2013-07-12 23:19:00,67.0,63.0,30.18,East,100,1.0,7.0,88,0.00,,,0.00,0,weatherlink.com 1.10,2013-07-13 03:19:00,
2013-07-12 23:34:00,66.8,64.0,30.19,East,101,2.0,7.0,89,0.00,,,0.00,0,weatherlink.com 1.10,2013-07-13 03:34:00,